Location: Marcé
(47.5801°N, 0.3280°W)
Time: 08:19:54
(UTC+01:00)

Tiros 1 despin weight - Pass Details

Date: 14 December 2021
Orbit: 592 x 641 km, 48.2° (Epoch: 25 January)

Event Time Altitude Azimuth Distance (km) Brightness Sun altitude
Rises 12:16:59 0° 263° (W) 2,863 ? 18.6°
Reaches altitude 10° 12:19:18 10° 264° (W) 1,952 ? 18.7°
Maximum altitude 12:23:47 85° 352° (N) 607 ? 18.8°
Drops below altitude 10° 12:28:13 10° 82° (E) 1,930 ? 18.9°
Sets 12:30:30 0° 83° (E) 2,829 ? 18.9°
